Lid_Strength_Index
3 3 3 3 3 3 3 3 3 3 3 3 3 3 3 3 3 7 10 5 4 2 3 6 7 6 5 7 6 7 12 14 13 12 11 9 9 7 6 7 6 7 8 8 4
4 4 4 3 4 3 3 3 3 3 3 3 3 3 3 4 7 9 3 2 3 3 8 9 10 8 10 9 8 9 12 12 9 9 10 9 9 9 8 8 8 8 7 7 4
4 4 4 4 4 4 3 3 3 3 3 3 3 4 4 5 11 8 4 4 4 5 8 8 9 10 12 10 11 9 12 9 9 8 7 8 9 8 9 10 9 10 8 7 6
4 4 4 4 4 4 4 4 4 4 3 4 4 4 5 8 18 8 5 4 4 6 6 7 9 12 13 14 11 13 11 10 8 7 7 8 7 8 9 9 7 7 7 7 7
5 5 5 4 4 4 4 4 4 4 4 4 4 5 9 13 13 8 5 5 5 6 8 9 10 11 13 12 11 13 12 10 10 10 11 10 10 9 9 7 6 7 6 6 7
5 5 4 4 4 4 4 4 4 4 4 4 5 5 11 16 8 8 8 7 6 8 8 8 9 9 11 11 12 11 11 11 11 11 11 12 12 11 10 7 7 7 8 7 7
5 5 5 5 5 5 4 4 4 4 4 4 5 8 12 13 9 8 8 7 7 8 9 8 8 10 9 12 9 10 14 12 12 12 12 11 13 13 10 8 8 8 8 7 6
5 5 5 5 5 5 4 4 4 4 5 5 5 10 15 8 9 8 7 8 7 6 6 5 5 6 7 7 9 11 12 16 13 11 11 12 16 12 9 10 9 8 8 8 7
5 5 5 5 5 5 4 4 5 5 6 6 11 12 15 7 10 8 8 9 7 6 4 2 4 7 7 10 12 12 15 14 14 10 11 13 15 12 10 10 11 9 8 7 7
5 5 5 5 5 5 4 5 6 8 9 9 10 14 12 13 10 8 7 7 8 7 6 6 8 11 11 12 17 15 14 13 14 12 11 13 13 11 11 11 12 10 9 7 8
5 5 5 5 5 4 7 11 14 15 13 15 14 14 12 9 8 9 7 7 6 7 11 9 12 14 13 11 11 12 13 14 12 9 11 13 12 12 11 11 12 12 10 8 7
5 5 5 5 5 5 9 13 12 12 16 12 11 11 10 9 12 10 7 10 9 11 9 11 15 10 9 9 11 12 14 14 12 10 11 11 12 11 12 12 12 12 11 10 9
5 5 5 5 5 8 11 11 8 9 18 14 11 11 11 10 12 11 8 8 10 11 11 13 12 9 10 11 12 12 14 14 14 12 11 12 14 12 10 11 11 11 10 10 10
4 5 5 5 9 10 12 8 8 9 24 16 15 12 10 10 13 7 6 7 9 13 11 13 9 10 11 12 11 15 10 11 13 14 18 12 19 14 12 13 11 11 11 11 10
5 5 5 5 10 12 9 8 7 9 30 16 14 9 10 12 11 9 4 7 11 11 12 13 11 11 13 12 10 13 10 12 12 15 16 16 19 16 12 14 13 12 11 11 10
5 5 5 8 10 9 8 7 10 23 29 17 14 15 14 12 11 9 8 6 7 12 11 11 8 10 12 9 10 10 12 13 14 18 22 17 18 18 16 14 12 10 10 9 9
5 5 6 8 12 8 8 11 22 27 17 20 17 15 15 14 13 12 12 15 18 17 18 14 13 10 9 15 12 13 15 22 25 27 25 15 16 16 13 12 11 10 9 9 8
5 5 7 8 8 8 11 18 29 25 21 15 15 15 17 14 14 16 18 19 14 17 17 21 20 13 10 13 14 16 15 19 24 23 21 15 20 16 13 12 11 9 9 9 9
5 9 10 9 8 9 15 25 24 19 16 16 17 20 19 14 17 17 20 19 15 12 16 18 19 11 11 11 11 15 20 14 18 21 21 19 15 14 13 14 13 12 10 10 11
10 11 11 8 8 11 18 19 19 14 14 15 21 20 27 22 22 19 19 14 17 10 10 15 19 13 11 12 11 13 11 20 22 25 27 21 20 21 18 17 15 15 13 12 11
11 15 10 8 10 15 22 21 15 13 13 17 18 19 18 21 20 21 17 12 11 12 10 14 17 17 16 22 19 16 18 16 17 19 25 23 23 16 18 17 17 16 13 12 12
11 18 10 9 18 20 21 17 12 13 12 12 13 14 18 20 21 18 16 13 10 10 14 15 15 25 20 14 14 13 15 15 21 24 22 21 22 15 16 15 16 16 14 13 14
12 14 9 10 22 21 16 15 13 13 13 16 15 13 16 19 20 18 14 10 10 11 13 13 15 19 22 18 14 17 14 15 17 17 23 22 24 15 16 16 16 16 15 14 15
11 16 14 13 14 17 18 16 16 11 13 12 13 12 19 21 16 19 14 11 10 11 8 9 20 18 20 19 18 18 16 16 18 23 22 23 22 19 18 18 18 17 16 16 17
10 13 13 19 15 14 13 13 15 15 12 12 17 15 18 22 23 19 14 13 11 9 12 12 17 21 17 16 17 17 17 17 22 20 22 20 22 20 18 18 18 17 17 17 17
11 12 11 18 13 12 12 14 14 13 13 16 16 15 17 18 16 18 15 14 14 14 16 13 18 20 18 16 17 16 16 16 18 19 20 20 20 17 16 17 18 18 18 19 18
10 8 9 11 10 13 13 12 12 11 11 11 13 15 18 15 12 12 11 11 12 14 14 15 16 20 24 19 18 20 18 17 19 19 20 22 19 17 18 19 19 18 18 18 18